Simultaneous Nadir Overpasses (SNOs) Predictions

Prediction of SNOs between METOP-B and TERRA Satellite Orbit:

Table of predicted SNOs for the next 14.0 days since TLE Epoch: 11/16/2024
Index Date (METOP-B) Time (METOP-B) Lat,Lon (METOP-B) SZA (METOP-B ) Date (TERRA) Time (TERRA) Lat,Lon (TERRA) SZA (TERRA ) Distance(km) Time Diff (sec)
1 11/16/2024 15:39:20 79.50, -41.37 98.86 11/16/2024 15:39:35 79.50, -41.32 98.86 1.03 15
2 11/16/2024 16:29:54 -79.74, 127.92 80.81 11/16/2024 16:28:49 -79.75, 128.00 80.81 1.82 65
3 11/19/2024 05:18:46 -79.36, -67.32 80.74 11/19/2024 05:19:52 -79.36, -67.36 80.73 0.84 66
4 11/19/2024 06:09:19 79.60, 101.87 99.60 11/19/2024 06:09:06 79.60, 101.88 99.59 0.13 13
5 11/21/2024 19:48:46 -79.45, 75.82 80.05 11/21/2024 19:49:23 -79.45, 75.80 80.04 0.41 37
6 11/21/2024 20:39:20 79.65,-115.24 100.24 11/21/2024 20:38:38 79.65,-115.20 100.23 0.94 42
7 11/24/2024 10:18:47 -79.49,-141.38 79.47 11/24/2024 10:18:54 -79.50,-141.30 79.46 1.85 7
8 11/24/2024 11:09:18 79.79, 28.40 100.95 11/24/2024 11:08:07 79.78, 28.26 100.92 3.03 71
9 11/26/2024 23:58:12 79.34,-167.41 100.81 11/26/2024 23:59:09 79.35,-167.38 100.83 0.64 57
10 11/27/2024 00:48:45 -79.63, 2.15 78.81 11/27/2024 00:48:22 -79.63, 2.12 78.81 0.62 23
11 11/29/2024 14:28:11 79.43, -24.26 101.36 11/29/2024 14:28:37 79.43, -24.25 101.37 0.34 26



Historial Predications of SNOs between METOP-B and TERRA
